Torna al catalogo

STARLINK-37547

AttivoComunicazioniSSO
NORAD 68846·PAYLOAD·🇺🇸 United States

Lanciato Apr 26, 2026 da Vandenberg Space Force Base

Loading…

Prossimi Passaggi (prossime 24 ore)

TLE

AggiornatoSource: CelesTrak SupGP

Epoca: Sep 14, 2026, 21:26 UTC

1 68846C 26094H   26257.89354167  .00049254  00000+0  15293-2 0  2570
2 68846  97.2836 271.0616 0001498  90.7290 358.6440 15.33406962    11

Traccia STARLINK-37547 in tempo reale con AllMySat

Download on the App Store